Location: *
(50.3440°N, 18.6237°E)
Time: 16:18:10
(UTC+00:00)

CSL-04 Debris - Pass Details

Date: 30 November 2020
Orbit: 826 x 849 km, 98.9° (Epoch: 17 January)

Event Time Altitude Azimuth Distance (km) Brightness Sun altitude
Exits shadow 17:43:20 52° 171° (S) 1,044 4.5 -27.5°
Maximum altitude 17:44:44 85° 254° (WSW) 859 4.1 -27.7°
Drops below altitude 10° 17:50:16 10° 344° (NNW) 2,482 6.8 -28.6°
Sets 17:52:38 0° 345° (NNW) 3,419 7.5 -29.0°
